Wind_Speed
6 7 8 9 10 11 12 13 14 14 15 15 15 15 15 15 16 16 17 17 17 18 17 17 17 17 16 16 15 14 14 14 13 13 12 12 12 11 11 11 9 9 7 7 5 5 5 5 6 6 7 8 8 7 7 7 6 6 6 7 7 6 5 5 6 5 4 11 15 15 13 13 12 11 11 11 11 11 11 12 12 10 9 6 3 3 5 7
7 8 9 9 10 11 12 13 14 15 16 17 17 18 17 17 17 18 18 18 18 18 19 19 19 18 18 18 17 16 16 15 15 14 14 14 13 13 13 13 12 11 9 8 6 7 7 7 7 7 8 9 8 7 6 6 6 7 7 7 8 8 8 8 9 8 7 13 18 18 15 15 14 12 11 11 11 11 12 12 13 12 10 9 5 3 5 7
8 9 9 10 11 12 12 13 13 14 15 16 17 18 18 19 19 19 19 19 19 19 19 19 20 20 19 19 18 18 17 17 16 16 16 15 15 14 15 15 14 13 11 9 8 8 8 9 9 9 10 10 10 8 7 6 6 7 6 6 7 8 10 10 11 9 11 17 19 21 18 16 14 13 12 12 12 11 12 11 11 13 12 11 7 4 5 7
10 10 11 12 12 13 13 14 14 14 15 15 16 17 18 18 19 19 20 20 20 20 20 20 20 20 20 20 20 19 19 18 18 17 17 16 16 16 17 16 15 14 13 12 11 10 10 11 11 11 11 12 11 9 8 6 6 6 6 6 7 8 11 11 12 9 15 20 21 22 19 17 14 14 13 12 13 12 11 8 7 10 12 11 9 6 5 7
13 13 13 13 14 14 14 15 15 16 16 16 16 17 17 18 19 19 20 20 20 20 20 20 20 20 20 20 20 20 20 19 19 18 18 18 18 18 19 18 17 16 16 15 14 12 12 13 13 13 13 14 13 11 8 6 5 6 6 7 8 8 10 11 12 7 21 23 23 24 20 18 15 14 12 10 11 10 11 9 7 7 9 10 10 8 7 7
15 15 15 15 15 16 16 16 16 16 16 17 17 17 18 19 19 19 20 20 20 20 20 20 20 20 20 20 21 21 21 20 20 20 20 20 20 20 20 20 19 19 18 17 16 14 14 14 14 15 16 16 15 12 9 7 6 6 6 6 7 7 8 10 11 8 28 26 24 24 20 19 15 13 12 10 10 9 10 10 8 6 6 8 9 9 8 8
16 17 17 17 17 17 17 17 17 17 17 17 17 18 18 19 19 19 20 20 20 20 20 20 20 20 20 20 21 21 21 22 22 22 22 22 22 22 22 22 21 21 20 19 18 17 17 16 17 17 18 18 16 13 10 7 7 7 6 5 6 6 6 8 10 9 21 21 24 24 20 18 14 13 12 11 11 10 10 10 10 7 6 7 8 8 7 8
18 19 19 19 19 19 18 18 17 17 17 18 18 18 19 19 20 20 20 20 20 20 20 20 20 20 20 21 21 21 22 22 23 23 23 23 24 24 24 24 24 24 23 21 20 19 19 19 19 19 20 19 16 14 11 9 8 8 7 5 4 4 4 4 6 5 6 13 23 23 18 16 14 13 12 12 12 11 11 11 11 8 7 8 8 7 6 8
20 21 21 21 21 21 20 19 18 18 18 18 18 19 20 20 20 20 20 20 20 20 19 19 19 20 20 21 21 22 22 22 23 23 23 24 24 25 25 25 25 25 24 23 22 22 22 22 22 22 21 18 16 15 12 11 10 8 7 6 4 2 2 1 1 1 1 9 20 20 17 16 14 13 11 11 12 11 11 11 11 10 9 10 8 7 6 8
22 22 23 23 23 22 21 20 19 18 18 18 19 20 20 21 21 21 20 20 19 19 19 18 18 19 19 20 21 21 21 22 22 23 23 24 24 25 25 26 26 26 26 25 24 25 25 25 24 23 21 18 17 16 14 13 12 8 7 6 4 4 3 2 2 1 2 8 17 18 17 17 15 13 11 11 12 12 12 11 10 10 11 10 9 7 7 8
23 24 24 24 24 23 22 20 19 18 18 18 19 20 21 21 21 21 20 19 18 18 17 17 17 17 18 19 20 20 20 21 22 23 23 24 24 25 25 26 26 26 26 26 26 27 27 27 26 24 22 20 18 17 16 15 13 10 8 7 6 5 6 6 5 3 3 8 16 19 19 18 16 14 12 12 13 13 12 10 10 11 11 11 10 8 7 8
24 25 25 25 24 23 22 21 20 18 18 19 19 20 21 21 21 20 19 18 17 16 16 16 16 16 17 18 19 20 20 21 22 22 23 23 24 24 24 25 26 26 26 27 28 29 28 28 27 26 24 21 19 18 18 16 13 11 9 8 7 7 8 8 7 5 5 8 15 21 21 19 17 16 13 12 13 13 11 10 10 11 12 11 10 9 7 8
26 26 26 26 25 24 22 21 20 19 18 19 20 21 21 21 21 19 18 17 16 16 15 16 16 17 18 19 19 20 20 21 21 22 23 23 23 23 24 24 24 25 26 27 29 29 29 28 27 27 25 22 20 19 19 17 15 12 11 9 9 10 11 10 8 7 7 8 16 22 22 20 19 17 14 13 14 13 11 10 9 12 13 12 11 9 8 7
26 27 26 26 24 23 22 21 20 19 19 19 20 21 21 21 20 18 17 16 15 15 15 16 17 18 19 19 20 20 21 21 21 22 23 23 23 23 23 24 24 24 25 27 28 29 29 28 28 27 25 23 21 20 20 18 15 13 12 11 11 12 12 11 10 10 8 9 16 23 23 22 21 18 15 14 14 14 13 11 10 13 14 13 12 10 8 7
27 26 26 25 24 23 22 21 20 19 19 19 20 21 21 20 18 17 16 15 15 15 16 17 18 18 19 20 20 20 21 21 21 22 23 23 23 24 24 24 24 24 25 26 27 28 28 28 28 28 25 23 22 21 20 18 16 14 13 14 14 14 14 13 11 10 9 9 16 24 26 25 22 19 17 16 15 14 13 13 12 14 15 13 13 10 9 8
26 26 25 24 23 22 21 20 19 19 18 19 20 20 20 18 17 16 15 15 15 16 17 17 18 18 19 19 20 21 21 22 22 22 23 23 23 24 24 25 25 25 25 25 26 26 26 27 28 28 26 24 23 21 20 18 16 16 16 17 17 16 15 13 10 9 9 8 14 24 28 26 23 21 19 17 16 14 14 14 13 14 15 14 13 12 10 9
25 25 24 23 22 21 20 20 19 18 18 19 19 19 18 17 16 15 14 15 16 16 17 18 18 19 19 19 20 21 22 22 23 23 23 23 23 24 24 24 24 25 25 25 25 25 25 27 28 28 26 24 23 21 19 18 18 20 21 20 18 16 14 13 10 9 10 8 13 25 30 27 24 22 21 18 16 14 14 15 14 14 14 14 14 13 11 10
25 24 23 22 21 20 19 19 18 18 18 18 18 18 17 16 15 15 15 15 16 16 17 18 18 19 19 19 20 21 21 23 23 23 24 23 23 23 23 23 23 24 24 24 24 24 24 26 27 26 24 22 21 19 19 22 23 23 22 21 18 16 14 13 10 9 10 8 13 25 30 27 26 24 21 19 17 16 15 15 15 15 14 14 15 14 12 9
24 24 23 21 20 19 18 18 17 17 17 17 17 16 15 15 14 15 15 15 16 16 17 18 18 19 19 20 20 20 20 21 21 22 23 23 22 22 22 22 22 23 23 23 22 22 23 24 24 23 21 20 20 21 24 27 26 23 22 22 20 17 15 14 11 9 10 9 12 22 28 26 26 25 22 19 18 18 16 14 14 14 13 13 14 13 11 10
23 22 21 20 19 18 18 17 17 16 16 16 16 15 14 14 15 15 15 15 15 16 17 18 18 19 19 19 19 18 17 18 18 19 19 20 20 20 20 20 20 21 21 21 20 20 21 20 19 19 20 23 24 27 30 29 26 24 23 23 21 18 16 15 12 10 10 10 12 19 25 26 25 25 23 21 20 18 15 14 14 14 14 14 14 13 12 10
22 21 20 19 18 17 17 17 16 16 15 15 14 14 14 14 15 16 16 16 15 17 17 17 18 18 18 18 17 16 15 14 15 16 16 16 17 18 19 19 19 19 19 18 17 17 18 16 17 21 25 27 29 31 32 30 28 25 24 23 22 19 17 16 14 11 10 11 12 17 23 26 25 25 23 21 20 19 17 16 16 15 15 14 14 13 12 11
21 20 19 18 17 17 16 16 16 15 14 14 13 14 14 14 15 16 17 17 17 18 18 19 19 18 18 17 15 14 13 13 13 14 14 13 15 17 19 19 18 18 17 17 16 15 15 15 20 25 27 28 31 32 32 30 28 26 23 22 20 19 18 18 14 11 12 12 12 16 22 26 26 24 22 20 21 21 20 20 19 17 17 16 15 14 13 12
21 20 18 17 17 16 16 16 15 14 13 13 13 14 15 15 16 16 16 17 18 19 20 21 20 19 18 16 14 13 12 12 13 13 13 12 13 15 18 19 19 18 17 16 15 14 15 18 23 26 26 29 31 32 32 30 28 26 24 21 19 19 20 19 15 10 11 13 13 16 22 26 26 23 21 20 20 22 22 21 20 18 18 18 16 15 16 15
21 20 18 17 16 16 16 15 14 14 13 13 14 15 15 15 16 16 17 17 18 19 20 20 20 19 17 15 13 12 12 13 13 13 12 11 11 13 17 19 19 18 18 17 16 16 17 20 22 24 26 29 31 32 32 30 28 26 23 22 21 22 22 22 19 11 9 14 15 16 20 24 26 24 22 20 21 23 23 20 19 19 19 18 16 16 17 16
21 20 18 17 16 16 16 15 14 14 13 14 14 15 15 15 16 16 17 18 19 19 19 20 20 18 16 14 13 12 13 14 13 13 11 10 9 11 14 16 18 18 18 17 17 17 18 20 21 24 26 29 31 31 31 30 29 26 23 22 23 24 25 25 24 16 10 13 15 16 19 20 21 23 23 21 22 25 24 21 19 20 19 17 16 16 17 16
21 20 19 17 16 16 16 15 14 14 13 14 14 14 15 15 15 16 17 17 18 19 19 19 19 18 18 16 13 13 13 13 13 12 11 9 9 9 11 14 17 18 18 18 17 17 18 20 22 24 27 30 32 31 31 31 29 27 24 25 27 27 28 27 26 21 14 13 15 15 17 17 18 21 23 22 23 26 26 23 21 20 18 18 18 17 17 17
20 19 19 18 17 16 16 16 15 14 14 14 14 14 14 14 15 15 16 16 17 17 18 18 18 17 17 16 15 14 14 13 13 13 11 10 9 9 11 13 16 18 19 19 18 18 19 20 23 25 27 30 32 30 30 30 30 29 27 27 29 29 29 28 27 22 16 15 16 14 15 16 16 18 22 24 24 26 27 25 23 21 18 19 19 17 17 18
20 19 18 18 17 16 16 16 15 15 14 14 14 14 13 14 14 14 15 15 16 17 17 17 17 17 17 16 16 16 14 12 12 11 11 10 9 9 11 13 15 17 18 19 19 18 19 22 24 26 27 30 31 28 29 31 31 32 30 28 29 29 29 28 27 23 17 14 16 17 16 14 14 14 18 25 27 24 25 26 24 21 20 20 19 18 17 18
20 19 18 17 17 17 17 17 16 15 15 15 14 14 14 13 14 14 13 13 14 16 16 16 16 16 17 18 18 17 14 11 10 10 11 10 9 10 11 12 13 15 16 17 18 17 19 23 25 26 26 27 29 28 29 31 31 33 33 30 29 28 28 27 26 25 20 14 14 18 18 16 15 13 12 20 27 25 24 27 25 23 22 22 20 18 17 18
20 19 18 18 17 17 17 17 16 16 16 15 15 14 14 13 13 13 12 11 13 14 14 14 15 16 18 19 18 17 14 10 9 8 9 10 10 10 11 11 11 12 13 15 16 17 21 23 23 23 23 24 28 28 29 31 31 33 34 32 28 27 27 27 25 25 21 16 15 16 17 17 16 15 12 12 20 27 28 28 27 25 24 24 22 19 17 18
20 19 19 18 17 16 17 17 17 17 16 16 15 15 14 13 13 11 11 12 12 12 12 13 14 16 18 17 16 16 13 10 9 8 8 9 9 10 10 10 10 10 12 14 17 19 21 21 19 20 21 24 28 28 29 30 31 32 34 33 29 27 27 26 24 23 20 18 18 17 16 15 13 16 16 11 12 23 31 30 27 27 25 24 22 19 18 19
20 20 19 18 17 16 16 16 17 17 17 16 15 15 14 13 12 11 10 11 11 11 11 13 14 16 17 15 14 14 11 10 10 8 8 9 9 9 9 10 10 10 11 14 18 19 20 19 17 18 21 24 28 28 28 30 30 32 34 34 31 28 27 25 22 22 20 19 19 18 16 14 13 15 14 11 10 14 26 32 29 27 27 25 23 20 19 19
20 20 19 18 17 16 16 16 16 17 17 16 15 15 15 13 12 11 10 9 10 10 11 13 13 15 17 13 12 11 10 9 9 8 8 8 9 9 9 10 10 10 12 15 18 19 18 17 16 19 22 24 27 27 26 27 28 30 32 34 32 28 26 23 21 21 21 19 17 17 15 13 15 15 11 11 12 10 16 28 31 29 29 28 25 22 21 20
21 20 20 19 18 17 16 16 16 16 17 16 15 15 15 14 12 12 10 9 9 10 11 13 14 15 16 12 9 9 9 9 9 6 6 7 9 8 8 10 11 12 13 15 18 18 17 16 17 20 22 24 26 26 24 24 26 27 31 33 31 27 23 23 23 23 20 17 15 15 14 11 12 14 12 11 13 11 11 19 29 31 30 30 29 26 24 23
21 21 20 19 18 17 16 16 16 16 16 16 15 15 15 14 13 12 10 10 10 10 10 12 14 15 14 9 7 8 9 9 8 6 5 6 8 7 7 10 13 14 15 15 17 18 17 17 19 21 23 24 25 24 23 24 25 27 31 33 30 26 24 24 23 22 19 14 12 12 12 10 9 10 13 12 12 13 12 14 23 31 31 31 29 27 27 25
21 21 21 20 19 18 17 16 16 16 16 15 15 15 14 14 14 13 11 10 11 12 12 12 14 15 14 8 5 7 9 9 8 7 6 6 7 7 8 11 13 15 16 17 18 18 17 18 20 22 23 24 24 24 23 23 24 27 31 31 28 26 26 25 23 21 18 14 12 11 10 10 9 9 12 14 14 14 13 12 18 28 32 31 28 27 27 27
21 21 21 21 20 19 18 16 16 16 16 15 14 14 14 13 13 13 11 10 11 12 13 13 14 15 14 8 5 5 8 9 8 8 8 7 7 8 8 10 12 15 17 19 20 19 19 20 22 23 22 22 23 23 22 23 24 26 28 29 27 27 27 25 23 21 17 14 12 11 10 9 10 10 11 14 16 15 13 12 16 26 32 32 30 29 28 27
21 21 21 21 20 19 18 17 16 16 16 15 13 13 13 12 12 12 11 10 11 11 12 13 14 15 13 8 6 5 6 7 7 7 9 8 9 9 9 11 13 15 18 20 21 21 20 21 23 24 22 21 23 22 21 23 25 26 27 29 29 29 28 26 25 21 17 16 13 12 11 9 10 11 11 13 15 15 14 13 15 23 32 33 33 31 29 29
21 21 20 21 21 20 19 17 16 16 16 14 13 12 11 11 11 11 12 11 11 11 12 13 13 14 12 7 6 5 5 7 7 7 7 8 10 12 11 12 14 16 19 21 22 22 22 22 23 24 23 22 22 23 22 24 27 27 29 30 31 30 28 26 26 23 19 17 16 13 11 10 10 11 11 13 14 14 14 14 14 21 32 35 34 34 32 29
22 21 20 20 21 20 20 18 17 16 16 14 12 10 10 10 10 10 11 12 12 12 12 13 13 13 12 8 6 6 7 8 9 8 7 8 10 12 13 14 16 17 19 21 23 23 23 24 23 23 24 24 22 22 21 24 28 29 29 29 30 30 28 23 23 23 20 18 17 15 12 10 10 10 10 11 13 13 12 13 13 17 30 37 35 37 35 29
23 21 21 20 20 20 20 19 17 17 16 14 11 10 9 9 9 9 11 12 13 13 12 11 12 13 12 9 7 8 9 10 11 10 9 9 10 11 12 14 17 19 19 21 24 24 23 23 24 23 23 24 24 20 19 24 29 29 29 28 28 30 28 21 18 20 19 17 16 15 13 11 11 10 10 9 11 12 12 13 11 12 24 35 38 38 36 30
23 22 21 21 20 20 20 19 18 17 16 13 11 11 10 10 10 10 11 12 13 14 12 10 11 12 12 10 8 9 10 11 12 10 9 9 9 9 10 12 16 18 19 20 22 25 24 22 23 24 23 22 23 21 19 24 30 29 29 29 28 29 28 23 19 19 19 19 16 15 14 13 12 11 10 8 8 9 11 13 13 11 17 28 37 40 37 32
22 22 21 21 20 20 20 19 18 17 16 13 13 12 11 10 10 10 11 12 13 14 12 10 11 12 14 13 11 10 10 10 10 8 7 8 9 9 9 11 15 18 19 19 20 23 25 22 22 25 25 21 22 24 23 25 29 28 27 28 29 28 26 24 22 22 22 22 19 18 17 15 13 11 9 7 6 7 9 12 14 13 13 19 28 37 39 35
21 21 21 21 21 21 20 19 18 17 16 15 14 13 11 11 11 11 12 12 13 13 12 11 11 13 15 14 12 12 12 11 10 8 6 7 9 10 10 12 15 18 19 19 19 21 23 23 22 24 25 23 23 27 27 26 29 29 27 28 29 27 25 26 26 25 25 24 21 19 17 15 13 12 9 6 6 7 9 11 14 15 15 15 19 29 38 39
20 20 20 20 21 21 20 19 18 17 16 16 15 14 12 11 11 11 12 13 13 12 11 12 13 12 13 12 11 13 13 12 10 9 7 7 8 11 13 13 15 18 18 17 17 18 20 23 23 24 26 26 26 28 29 27 28 29 27 27 28 27 26 27 29 26 25 24 21 18 16 14 13 13 10 8 8 8 9 11 14 16 18 17 16 22 34 41
20 19 20 20 21 21 20 18 17 17 17 16 16 15 13 12 11 11 12 13 13 13 11 12 13 12 11 11 11 13 13 11 9 9 8 8 8 9 10 10 9 12 15 15 15 16 19 22 23 24 27 28 27 28 29 27 24 25 26 25 26 27 26 28 30 25 23 22 18 15 13 13 12 12 11 10 10 10 10 10 13 16 19 20 19 20 30 40
20 19 19 20 21 20 19 18 17 17 17 17 16 15 14 13 12 11 11 11 13 13 12 12 13 12 12 12 13 13 13 12 9 9 9 9 8 6 6 7 6 6 10 13 14 15 18 21 23 25 27 29 29 28 28 26 22 21 24 24 24 25 25 30 29 25 22 19 16 13 12 12 11 11 11 11 11 11 10 10 11 14 18 20 21 21 27 39
20 19 19 20 20 20 18 18 17 17 17 17 16 15 14 13 12 11 11 10 12 13 13 13 12 12 12 13 12 13 13 11 10 9 9 9 8 6 2 3 3 3 5 9 14 16 17 20 23 25 27 29 30 30 29 27 24 22 22 23 25 25 26 29 28 24 21 18 16 14 13 13 11 11 12 12 12 11 10 10 10 13 15 18 22 23 27 37
21 20 19 19 19 19 19 18 17 17 17 17 16 15 15 14 12 11 11 10 11 12 13 13 12 11 12 13 12 12 12 11 11 11 10 9 10 7 4 3 3 2 1 4 10 15 18 20 23 25 27 28 30 32 30 29 28 26 23 23 25 24 25 28 26 24 22 19 17 15 14 13 11 11 11 12 12 12 11 9 9 11 12 15 20 24 28 37
21 21 20 19 19 18 18 18 18 18 18 17 16 15 15 14 13 12 11 10 10 12 11 11 12 12 12 13 12 11 12 12 13 13 11 10 11 11 7 5 5 2 1 1 3 8 14 20 22 24 26 29 31 32 30 27 26 26 25 25 25 25 26 26 25 25 23 20 19 17 15 13 11 11 11 12 12 12 11 9 8 8 9 12 19 23 28 39
22 22 22 21 20 19 19 19 19 19 19 18 17 16 16 15 14 12 12 11 11 11 11 11 11 11 11 12 12 12 13 13 14 14 12 11 12 12 11 8 5 2 2 3 1 1 5 12 18 21 23 27 30 31 29 26 24 24 26 27 28 28 28 26 25 25 24 22 21 18 16 14 11 11 11 11 12 12 12 10 8 6 6 10 17 21 28 40
24 24 24 23 22 21 20 20 20 20 19 19 18 17 17 17 15 13 13 13 12 12 12 11 10 10 10 11 12 13 14 14 14 14 13 12 12 13 13 12 10 7 3 3 2 2 1 3 8 14 18 23 27 28 27 26 25 25 25 25 26 30 31 29 27 27 26 24 23 20 17 15 12 11 11 11 12 12 11 11 9 8 6 7 11 17 26 40
Wind_Direction
318 313 308 305 303 300 298 297 296 295 295 295 295 295 296 295 294 293 293 292 291 290 289 288 287 285 285 284 282 280 278 275 273 272 274 274 274 277 278 279 274 265 259 257 261 263 262 255 251 250 245 250 254 257 257 252 250 257 269 280 292 303 317 327 325 327 231 191 169 161 157 148 149 154 158 157 147 145 151 146 137 129 125 118 114 141 122 110
326 320 316 311 307 304 301 298 295 294 293 292 292 293 293 293 294 293 293 292 291 290 289 288 287 285 284 283 282 279 276 273 271 272 272 272 273 275 274 274 273 270 265 261 257 255 256 255 256 252 249 252 256 259 256 255 249 252 263 278 294 303 311 316 312 303 233 200 174 163 163 159 158 160 160 153 145 151 158 158 149 139 136 132 135 162 129 110
330 327 324 320 315 312 308 306 302 298 296 295 294 293 293 293 293 293 293 293 292 291 290 288 287 285 284 282 281 279 276 274 272 272 271 271 273 272 271 271 271 270 268 263 253 251 253 253 254 250 252 255 259 260 253 254 250 251 259 277 295 304 310 314 310 289 218 200 177 165 170 168 163 160 161 153 147 159 166 171 163 149 147 142 142 165 133 113
331 328 326 322 318 314 311 308 304 301 299 297 297 296 296 296 295 294 293 294 293 292 291 289 287 285 284 282 280 278 276 275 273 271 270 270 270 269 269 269 269 269 267 262 254 248 248 251 254 251 253 256 261 261 255 255 254 257 258 277 290 299 311 316 311 276 202 195 177 168 178 175 169 164 163 157 153 164 168 180 192 167 160 152 146 159 139 118
332 329 326 322 317 314 310 307 304 301 299 298 298 298 298 298 298 297 295 295 294 294 292 290 288 285 284 281 279 278 276 275 273 270 269 268 267 266 266 267 267 266 263 260 255 249 245 248 252 251 252 254 259 260 260 261 257 262 259 275 286 297 315 327 322 246 188 188 177 172 181 181 178 167 155 150 152 167 170 171 196 192 177 164 153 159 146 123
331 329 325 322 317 314 310 307 305 302 300 299 298 298 299 299 300 300 299 297 296 295 294 291 289 286 284 281 279 277 276 275 271 269 268 266 266 265 265 265 265 265 262 260 257 252 246 246 248 248 251 254 258 258 261 262 256 261 257 270 283 301 327 353 353 192 180 178 173 175 181 184 182 162 149 150 153 167 174 167 176 207 205 175 156 159 148 127
331 328 324 321 317 313 310 308 306 304 302 300 300 300 300 299 300 301 300 300 298 296 295 293 290 287 285 282 279 277 276 274 271 269 268 267 267 266 266 266 265 264 262 260 258 254 250 247 246 246 249 252 256 256 259 261 256 257 252 253 269 301 341 23 38 145 174 174 173 177 181 184 179 162 157 158 158 170 176 169 172 200 213 178 161 163 148 127
329 326 323 320 316 313 311 309 307 304 302 302 302 302 302 302 302 302 301 301 299 296 295 292 290 288 285 283 280 278 276 274 273 271 269 268 267 265 264 264 263 262 261 260 258 256 253 249 246 246 248 250 254 255 256 257 251 249 247 241 248 297 345 41 63 111 175 183 179 180 181 180 175 169 167 161 162 174 177 175 176 186 196 179 170 169 145 126
326 324 321 319 315 313 311 309 306 304 303 303 304 304 305 305 306 305 304 303 300 298 295 293 290 288 286 283 281 279 276 275 274 272 270 269 267 265 264 262 261 259 259 258 256 255 252 250 247 245 247 248 252 253 252 251 246 242 242 239 234 264 306 32 77 113 207 193 185 186 184 178 175 176 173 165 168 176 177 180 181 178 184 181 173 169 144 124
323 321 318 316 313 311 309 307 305 304 304 303 304 305 306 307 308 308 307 305 302 299 296 293 291 289 287 285 282 281 279 277 276 274 272 270 268 266 264 262 260 258 258 256 254 253 251 250 250 249 250 249 250 252 250 248 247 243 239 237 231 232 231 222 223 200 218 206 195 192 188 180 179 180 179 174 176 179 177 180 183 180 184 182 173 168 147 125
320 317 314 312 309 308 306 305 304 303 303 302 303 305 307 308 309 310 309 306 302 299 297 295 293 290 289 288 286 286 283 280 279 277 275 272 269 266 264 262 259 257 256 254 252 252 252 252 252 252 252 250 249 250 249 249 248 245 240 232 226 233 232 227 232 230 243 229 207 197 191 183 180 183 185 183 180 182 178 177 185 185 186 184 176 172 155 133
317 314 311 308 306 305 304 303 302 302 301 301 303 306 309 310 311 311 309 306 303 301 300 298 297 295 294 293 291 290 287 284 282 280 278 275 272 269 266 262 259 257 254 252 251 251 251 251 252 253 252 249 248 249 249 249 247 243 239 231 226 235 238 233 236 239 252 245 217 202 194 185 181 185 190 189 186 184 179 178 187 188 187 186 182 178 163 142
315 312 309 306 304 303 302 302 301 300 300 301 303 308 311 312 313 312 309 308 307 307 306 305 305 304 301 299 296 293 289 286 283 280 278 275 273 270 267 264 260 257 253 251 250 250 250 249 250 250 250 249 248 247 249 249 246 241 237 231 227 232 237 236 246 258 256 243 218 204 193 186 185 188 192 193 189 184 179 179 190 192 187 186 189 184 168 147
314 311 308 306 304 303 302 301 300 299 300 301 305 310 314 315 314 313 312 312 314 315 315 314 312 309 305 301 298 293 289 285 282 279 276 273 271 269 267 264 261 257 254 251 250 249 249 247 247 247 247 247 246 245 247 248 246 241 236 233 229 230 234 230 241 259 253 235 216 201 192 190 189 191 195 195 193 187 182 180 188 197 191 186 192 190 171 152
315 312 310 308 306 304 303 302 300 300 301 304 308 314 316 316 316 315 316 319 322 323 321 318 314 310 306 301 298 294 290 286 282 279 275 272 269 267 265 263 260 257 254 251 250 249 248 247 245 244 242 242 241 241 244 245 244 240 236 235 232 230 231 223 228 248 242 233 215 197 192 194 191 191 195 196 196 192 188 183 185 197 197 190 193 191 176 161
318 316 314 311 309 307 305 304 302 301 303 308 312 317 318 317 318 319 323 327 327 325 322 318 314 311 306 303 299 295 290 287 283 279 275 272 268 264 262 260 258 257 255 252 250 249 246 245 243 241 238 235 236 236 239 244 241 238 234 232 231 227 228 224 227 241 231 234 220 197 194 197 192 192 194 194 198 196 192 189 186 196 200 196 194 194 184 170
323 322 320 316 314 311 308 306 304 305 308 312 316 319 319 319 321 324 329 329 326 324 322 319 317 313 310 306 301 297 293 289 284 279 274 271 267 263 260 259 257 256 255 252 250 248 245 242 241 240 236 232 231 231 236 242 237 232 229 230 231 227 228 223 224 235 226 240 233 203 195 196 193 193 194 194 197 197 195 193 192 198 201 198 197 198 192 176
328 327 325 323 319 316 313 310 308 310 313 316 319 320 321 322 325 328 330 326 323 323 324 323 321 318 314 310 304 299 295 290 285 280 274 270 265 262 260 258 255 254 253 252 250 247 244 241 239 237 233 229 228 226 230 234 232 230 229 231 233 229 228 221 218 227 221 241 238 205 193 194 194 193 194 194 196 197 198 197 199 202 201 199 201 203 196 178
331 331 330 328 325 322 318 315 314 316 318 320 322 322 324 325 328 330 327 323 323 326 328 328 327 323 320 315 309 303 297 291 285 280 276 270 264 260 256 254 253 252 252 252 249 246 243 240 238 235 229 224 220 219 224 228 230 229 229 231 231 226 224 219 217 220 212 226 229 200 190 193 196 196 195 195 196 198 200 200 204 207 205 203 205 206 199 181
335 335 334 331 328 326 323 320 320 321 322 323 325 326 328 330 331 329 324 323 327 330 333 334 331 328 325 321 316 310 303 296 290 284 278 272 264 258 253 250 249 249 250 251 249 245 242 239 235 228 221 215 212 215 220 223 225 225 225 228 228 223 220 218 219 221 212 215 217 198 191 194 196 196 197 197 199 199 198 200 205 209 209 209 208 207 201 186
338 337 335 332 329 328 326 324 324 325 326 328 330 330 332 333 331 328 325 327 331 333 337 340 336 333 330 327 322 315 308 300 293 289 282 274 263 253 247 244 243 245 246 247 246 244 240 234 224 218 214 210 208 213 217 219 221 221 220 225 227 222 218 216 217 225 220 213 214 206 198 194 195 198 200 201 199 195 194 198 204 209 210 212 210 207 202 190
339 338 335 332 331 330 328 328 328 329 330 333 333 333 334 334 330 329 330 332 335 337 341 343 341 339 336 333 328 319 312 304 297 294 289 278 262 249 243 239 237 239 241 242 242 239 232 220 214 213 211 207 208 213 216 217 220 218 215 220 225 222 218 213 212 224 225 214 209 207 203 199 197 200 202 203 200 195 194 197 200 205 210 213 211 206 202 193
340 339 335 333 333 332 331 331 331 333 335 338 337 336 336 336 333 333 334 334 337 341 344 344 344 342 339 336 330 321 315 311 307 302 297 285 265 248 240 236 234 235 236 237 235 229 220 212 212 213 208 205 208 212 214 214 217 217 212 212 218 218 217 212 208 217 226 217 206 202 205 206 205 203 201 203 203 198 199 199 197 202 210 213 209 202 201 196
340 340 337 335 335 334 333 334 334 337 341 342 341 340 339 338 336 336 337 338 340 344 345 343 342 341 340 339 332 323 318 314 310 305 299 289 268 246 237 234 233 233 233 233 230 222 216 211 212 212 207 205 208 212 214 213 213 214 210 209 214 217 217 213 206 208 220 214 206 204 207 212 214 211 204 202 203 201 203 203 198 203 210 213 210 204 205 202
340 342 339 338 338 337 336 336 339 342 345 345 343 342 342 340 338 337 338 340 342 345 345 341 339 339 342 340 333 326 319 312 309 304 294 284 266 244 234 231 230 232 231 229 225 219 214 211 210 212 208 205 208 213 214 212 210 207 205 209 214 218 219 214 209 210 216 211 208 212 213 216 221 217 209 207 204 202 204 205 203 205 207 210 212 209 210 209
338 341 341 340 340 339 338 339 342 344 347 347 345 345 344 341 337 338 339 340 343 345 343 339 336 339 343 341 336 331 319 310 308 302 290 277 265 246 233 228 228 229 229 227 222 216 212 209 210 213 211 207 209 213 214 212 208 201 200 208 213 218 220 217 214 214 216 216 213 217 220 221 224 217 211 212 210 205 204 204 208 209 205 207 210 209 211 212
336 338 340 341 341 341 339 340 343 345 347 348 347 346 344 339 337 339 340 340 343 343 341 339 336 339 343 340 337 331 318 310 305 299 289 274 264 252 237 229 227 227 227 226 220 214 210 209 211 214 213 209 208 213 214 210 207 200 199 208 213 218 220 217 216 216 220 224 220 221 224 221 223 219 211 211 212 210 206 204 209 211 205 206 209 206 208 214
334 335 336 339 341 341 340 340 342 344 346 348 347 344 342 341 339 341 341 339 341 342 340 339 337 340 342 338 336 332 323 311 300 293 286 272 260 254 245 236 232 230 229 227 221 213 210 212 214 215 214 209 207 214 217 211 205 200 201 209 213 215 217 216 215 218 224 231 227 227 227 220 220 225 219 213 212 212 208 205 208 210 206 207 208 204 205 214
331 332 332 334 337 339 339 339 340 341 343 344 344 343 343 342 340 340 340 338 340 340 338 336 336 338 337 335 336 335 329 315 298 289 279 266 254 251 248 241 238 237 235 231 225 216 213 216 218 219 216 208 207 215 220 214 206 202 204 210 213 214 216 215 216 221 225 232 233 231 232 227 223 228 228 216 212 212 210 206 207 209 207 206 207 203 202 211
328 329 330 330 332 334 336 337 337 337 339 341 341 342 342 340 338 339 338 336 337 336 335 334 334 335 335 335 334 332 331 319 302 290 274 261 251 248 248 244 240 240 238 231 225 220 219 222 223 225 220 211 211 216 219 216 208 204 207 211 214 216 216 215 217 223 225 231 239 237 237 237 234 238 241 222 212 212 210 205 205 207 206 205 205 201 199 207
325 327 328 328 328 329 331 333 332 333 335 337 338 339 338 336 336 336 334 334 334 333 334 332 332 335 336 332 326 326 330 322 307 294 277 263 251 246 247 245 237 234 236 229 223 221 223 226 227 227 223 216 217 219 219 216 209 206 209 213 216 218 218 216 218 224 226 234 240 241 244 243 240 243 242 236 224 213 208 204 203 205 206 205 204 200 197 204
324 324 325 326 325 324 326 327 328 329 330 333 336 336 334 333 332 332 332 331 330 329 330 329 332 337 337 330 319 321 328 323 311 297 282 269 255 245 243 244 237 231 234 229 224 223 223 225 225 224 223 220 222 223 220 217 211 207 209 214 217 219 220 218 219 224 228 236 238 239 247 247 241 244 241 234 237 220 208 203 199 200 203 205 205 202 199 201
323 322 323 324 323 322 322 322 323 325 327 329 332 333 330 330 328 326 328 328 326 327 327 329 332 336 338 329 310 314 324 321 313 294 278 271 259 248 238 238 234 228 229 226 224 225 223 222 221 221 223 223 225 227 224 220 216 210 209 214 217 218 219 219 220 225 230 237 238 237 244 249 245 248 246 232 232 231 215 208 201 196 198 202 204 203 202 200
322 321 322 322 321 320 319 318 319 322 323 325 330 329 327 327 324 322 323 323 323 324 325 329 330 334 338 327 300 305 317 322 318 291 273 272 262 251 240 234 228 224 225 223 224 224 219 218 220 221 222 223 224 226 223 219 216 211 210 215 217 214 215 216 219 224 230 236 238 236 241 252 250 245 243 237 232 234 232 217 208 201 199 200 202 202 202 200
320 320 320 320 320 319 317 315 317 319 320 323 327 327 324 324 320 318 319 320 321 323 325 328 328 332 335 322 291 294 305 321 330 311 292 288 273 259 245 234 227 225 224 223 226 226 219 216 218 218 220 222 223 224 219 215 211 206 208 215 217 214 214 216 217 222 228 232 233 234 239 248 249 238 233 231 230 231 234 226 215 210 207 206 206 204 200 199
318 318 318 317 317 318 316 314 314 315 315 318 324 324 321 320 317 314 315 317 317 319 323 327 326 329 332 319 281 288 300 315 329 326 321 310 289 269 249 240 233 228 225 224 226 225 220 219 220 219 220 222 223 222 218 212 208 205 207 211 213 213 216 217 217 221 224 224 223 228 237 244 243 235 226 221 223 229 232 232 221 216 215 213 213 211 204 198
315 316 316 314 315 316 315 313 311 310 310 315 320 320 318 317 314 311 310 311 311 313 319 324 324 326 328 315 271 277 300 309 315 322 326 322 302 279 256 246 241 233 229 227 226 224 219 219 224 223 222 224 225 222 215 209 204 204 207 208 208 210 213 215 216 218 218 216 216 225 238 246 241 237 229 221 223 227 230 235 227 217 216 215 215 215 209 200
313 314 313 311 312 312 312 311 308 306 306 310 316 318 317 317 313 308 305 304 306 309 314 317 318 321 321 305 276 276 293 304 309 312 317 317 305 286 264 251 246 239 234 230 228 227 220 218 225 226 223 226 228 222 213 207 202 200 204 206 206 208 210 213 214 212 211 212 214 224 234 239 239 237 234 227 227 230 233 238 231 217 214 214 214 215 213 205
311 311 309 308 308 308 309 309 306 304 302 306 315 317 314 311 306 302 299 297 300 305 310 312 314 317 312 289 270 275 278 288 296 298 303 305 297 289 273 257 251 245 240 233 229 228 222 218 224 228 224 225 228 223 213 206 203 202 205 207 207 207 208 212 211 205 205 209 211 219 224 226 232 232 230 228 227 232 237 242 238 218 209 209 212 214 212 208
306 307 305 306 305 305 306 306 304 300 299 305 313 309 303 300 298 296 294 294 295 299 304 307 310 313 306 282 260 264 269 277 282 284 288 295 297 293 279 261 251 247 243 236 231 229 224 218 222 229 227 223 225 226 217 207 204 206 208 209 209 209 210 211 202 193 197 204 206 212 214 214 222 222 220 222 221 224 231 240 246 221 204 203 207 210 211 208
301 301 301 302 303 303 302 302 301 298 298 303 304 296 291 291 290 288 288 289 290 292 297 302 306 310 307 292 269 263 269 275 280 284 291 301 310 307 287 265 254 249 245 239 233 230 225 219 220 228 230 227 225 225 219 208 204 208 211 211 211 212 215 217 200 185 190 198 202 209 213 210 212 208 202 209 215 216 220 227 235 216 199 201 205 208 209 207
297 295 296 298 300 301 300 299 298 297 297 298 294 287 285 284 282 281 283 285 286 287 292 296 300 305 306 303 290 277 275 277 282 289 298 307 317 318 302 276 260 253 249 245 238 234 229 222 221 227 230 230 227 222 214 207 205 209 213 211 210 213 217 220 208 192 192 197 200 207 214 215 213 202 192 195 207 214 217 219 219 207 196 202 208 210 210 207
295 292 292 294 297 299 298 296 296 295 294 291 286 284 284 280 277 276 277 280 283 286 291 293 293 295 294 294 294 289 285 282 284 287 295 306 315 321 312 286 267 257 253 250 245 240 234 226 224 227 227 226 226 221 214 209 210 214 215 211 210 213 218 216 204 195 196 198 199 205 212 216 217 210 198 196 209 220 225 224 220 213 203 203 209 213 212 208
296 291 290 292 295 297 296 294 293 291 290 286 283 283 283 279 277 276 276 279 282 287 294 296 292 287 283 283 285 287 286 283 278 274 280 301 312 315 311 292 271 259 252 251 250 245 238 230 226 228 226 223 223 223 218 214 217 218 216 214 212 215 219 210 196 192 197 199 199 204 211 218 222 222 216 216 231 237 234 232 227 221 215 210 212 213 211 209
299 292 290 291 294 295 294 292 290 288 286 283 281 283 284 282 280 278 278 280 282 286 292 293 291 286 283 283 282 282 285 281 272 265 269 289 301 306 310 303 281 265 257 253 254 250 240 233 228 227 226 223 224 227 224 221 220 217 215 217 215 218 218 203 192 191 193 195 198 201 207 216 225 230 230 236 245 245 240 237 233 226 220 216 216 216 212 209
301 294 292 293 294 294 292 289 287 284 283 281 279 282 285 285 282 278 275 276 279 282 286 288 289 286 284 285 283 283 286 282 267 257 261 272 282 293 308 317 301 276 263 254 256 255 243 235 230 228 228 225 226 231 228 225 223 218 217 218 215 219 212 192 187 189 186 187 193 195 200 209 220 227 228 233 241 245 247 245 241 235 225 219 219 220 214 209
302 297 294 294 294 294 290 285 283 281 280 278 277 281 284 282 279 276 271 270 273 278 281 282 283 284 284 284 282 281 284 282 268 253 252 258 258 264 303 336 344 304 272 255 252 253 246 239 233 230 230 229 231 236 232 226 223 220 221 218 216 220 205 184 184 187 179 177 181 183 191 201 212 221 222 229 239 246 252 253 252 244 232 225 221 221 216 209
301 298 295 295 295 294 287 282 280 279 277 276 276 280 282 278 275 273 269 267 269 273 276 276 276 278 280 281 279 277 280 283 276 264 259 260 256 243 264 332 336 313 283 261 253 250 246 243 235 231 233 233 234 239 235 224 218 220 221 216 218 221 201 183 183 181 173 173 176 179 187 195 207 219 220 226 237 245 253 260 261 251 238 230 223 218 214 209
300 297 295 294 294 293 288 282 280 278 275 273 275 277 277 275 273 270 268 266 267 270 272 273 271 270 271 273 275 276 277 277 272 267 266 271 273 267 242 194 192 201 248 260 256 249 243 242 239 235 235 236 239 242 238 225 215 215 215 212 217 216 197 185 183 177 172 177 181 183 189 194 206 219 220 226 235 243 254 262 266 259 244 228 219 214 210 206
298 296 294 293 292 291 288 285 282 280 275 272 271 271 271 272 269 266 264 261 262 266 268 267 265 262 264 267 271 274 273 271 269 265 262 265 273 278 271 221 188 178 164 201 267 254 239 238 239 238 237 238 240 242 242 233 221 214 212 210 211 208 197 189 185 178 177 184 188 189 192 196 206 219 224 231 238 244 253 258 263 264 245 215 206 204 204 203
295 294 293 291 289 286 285 284 283 281 277 272 267 264 265 266 263 261 260 256 254 258 259 258 257 257 260 261 262 265 266 267 269 267 264 260 260 269 276 266 248 230 170 141 86 303 236 233 235 236 238 239 240 241 241 235 225 218 216 213 211 208 201 193 187 185 185 188 192 194 196 198 205 219 230 238 244 250 255 256 257 260 238 206 198 195 196 198
292 291 291 289 286 282 280 280 281 281 277 271 265 261 261 262 259 255 255 252 247 248 250 249 246 246 252 256 256 257 259 262 267 270 270 264 256 259 268 272 273 271 238 181 138 117 151 244 244 239 238 239 239 240 239 231 224 224 224 223 220 215 207 195 187 189 191 193 196 197 197 200 204 216 231 240 246 252 254 254 256 259 245 202 187 187 190 193
Height
5894 5894 5894 5893 5893 5892 5891 5891 5890 5890 5889 5889 5889 5888 5888 5888 5888 5887 5887 5886 5886 5886 5886 5886 5886 5886 5886 5886 5886 5886 5886 5886 5886 5886 5887 5887 5887 5888 5888 5888 5889 5889 5890 5890 5891 5891 5891 5890 5891 5891 5891 5891 5891 5892 5893 5894 5895 5895 5896 5896 5896 5896 5897 5898 5898 5897 5898 5899 5899 5900 5901 5902 5903 5903 5903 5904 5904 5904 5905 5905 5905 5905 5906 5906 5907 5907 5906 5906
5894 5894 5893 5893 5892 5891 5891 5890 5889 5889 5888 5888 5887 5887 5887 5886 5886 5886 5885 5885 5885 5885 5885 5884 5884 5884 5884 5885 5885 5885 5885 5885 5885 5885 5886 5886 5886 5886 5887 5887 5887 5888 5889 5890 5890 5890 5890 5890 5890 5890 5890 5890 5890 5891 5892 5893 5894 5895 5895 5895 5895 5895 5896 5896 5897 5896 5897 5898 5898 5899 5901 5901 5902 5903 5903 5903 5903 5904 5904 5905 5905 5905 5906 5906 5907 5907 5906 5906
5894 5893 5893 5892 5891 5890 5889 5889 5888 5887 5887 5886 5886 5885 5885 5884 5884 5884 5883 5883 5883 5883 5883 5883 5883 5883 5883 5883 5883 5883 5883 5883 5884 5884 5884 5884 5885 5885 5885 5885 5886 5887 5887 5889 5889 5889 5889 5889 5889 5889 5889 5889 5889 5890 5891 5892 5893 5893 5894 5895 5895 5895 5895 5895 5894 5894 5895 5896 5897 5899 5900 5901 5902 5903 5903 5903 5903 5904 5905 5905 5905 5905 5906 5906 5907 5907 5906 5906
5893 5893 5892 5891 5890 5889 5888 5887 5887 5886 5885 5885 5884 5884 5883 5883 5882 5882 5882 5881 5881 5881 5881 5881 5881 5881 5881 5881 5881 5881 5881 5882 5882 5882 5883 5883 5883 5883 5883 5884 5884 5885 5886 5887 5888 5888 5888 5888 5888 5888 5888 5888 5888 5889 5890 5891 5891 5892 5893 5894 5894 5894 5894 5893 5892 5891 5892 5895 5897 5898 5899 5900 5901 5902 5903 5902 5903 5904 5905 5906 5906 5906 5906 5905 5906 5907 5906 5906
5892 5892 5891 5890 5889 5888 5887 5886 5885 5885 5884 5883 5883 5882 5882 5881 5881 5880 5880 5880 5879 5879 5879 5879 5879 5879 5879 5879 5879 5879 5879 5880 5880 5880 5881 5881 5881 5882 5882 5882 5883 5884 5884 5885 5886 5887 5887 5887 5887 5887 5887 5887 5887 5888 5889 5890 5891 5891 5892 5893 5893 5894 5893 5891 5889 5888 5890 5893 5896 5897 5899 5900 5901 5902 5903 5903 5903 5904 5905 5906 5907 5907 5907 5906 5906 5907 5906 5906
5891 5890 5890 5889 5888 5887 5886 5885 5884 5883 5882 5882 5881 5881 5880 5880 5879 5878 5878 5878 5877 5877 5877 5877 5877 5877 5877 5877 5877 5877 5877 5878 5878 5878 5879 5879 5879 5880 5880 5880 5881 5882 5882 5883 5884 5885 5885 5886 5886 5886 5885 5885 5886 5887 5888 5889 5890 5890 5891 5892 5892 5893 5893 5890 5887 5886 5888 5892 5895 5897 5898 5899 5901 5902 5903 5903 5903 5905 5905 5906 5907 5908 5908 5907 5907 5907 5906 5906
5890 5889 5888 5887 5886 5885 5884 5883 5882 5881 5881 5880 5879 5879 5878 5878 5877 5877 5876 5876 5875 5875 5875 5874 5874 5874 5874 5874 5875 5875 5875 5875 5875 5876 5876 5877 5877 5878 5878 5878 5879 5879 5880 5881 5883 5883 5884 5884 5884 5884 5884 5884 5885 5886 5887 5889 5889 5889 5890 5891 5892 5892 5892 5891 5889 5889 5891 5893 5895 5897 5898 5899 5901 5902 5902 5903 5903 5904 5905 5906 5906 5908 5908 5908 5907 5907 5906 5906
5889 5887 5886 5886 5884 5883 5882 5882 5881 5880 5879 5878 5878 5877 5876 5876 5875 5875 5874 5874 5873 5873 5872 5872 5872 5872 5872 5872 5872 5872 5872 5872 5873 5873 5874 5874 5875 5875 5875 5876 5877 5877 5878 5879 5881 5881 5882 5882 5882 5882 5882 5883 5884 5886 5887 5888 5888 5889 5889 5890 5891 5892 5893 5893 5892 5893 5894 5894 5895 5896 5898 5899 5901 5902 5902 5902 5903 5904 5905 5905 5906 5907 5908 5908 5908 5907 5907 5906
5887 5886 5885 5883 5882 5881 5880 5880 5879 5878 5877 5876 5876 5875 5874 5874 5873 5872 5872 5872 5871 5870 5870 5870 5870 5870 5869 5869 5869 5869 5869 5870 5870 5871 5871 5871 5872 5872 5873 5873 5874 5875 5876 5877 5878 5879 5879 5879 5880 5880 5880 5882 5884 5885 5886 5887 5887 5888 5889 5890 5891 5893 5893 5893 5893 5894 5894 5895 5896 5897 5898 5899 5901 5902 5902 5903 5903 5904 5905 5905 5906 5907 5908 5908 5908 5908 5907 5907
5885 5884 5883 5881 5880 5879 5878 5877 5876 5876 5875 5874 5874 5873 5872 5872 5871 5870 5870 5869 5869 5868 5868 5868 5868 5867 5867 5867 5867 5867 5867 5867 5867 5868 5868 5869 5869 5869 5870 5870 5871 5872 5873 5875 5876 5876 5876 5877 5878 5879 5880 5882 5883 5884 5885 5886 5886 5888 5888 5889 5890 5891 5892 5893 5893 5894 5894 5896 5896 5897 5898 5899 5900 5901 5902 5903 5903 5904 5905 5905 5905 5906 5908 5908 5908 5908 5908 5907
5884 5882 5881 5879 5878 5877 5876 5875 5874 5874 5873 5872 5871 5871 5870 5869 5869 5868 5868 5867 5866 5866 5866 5866 5865 5865 5865 5865 5865 5864 5865 5865 5865 5865 5865 5866 5866 5866 5867 5868 5868 5869 5871 5872 5872 5873 5874 5875 5876 5877 5879 5881 5882 5883 5884 5884 5886 5887 5888 5889 5889 5890 5891 5892 5892 5893 5894 5895 5896 5896 5897 5899 5900 5901 5902 5902 5903 5904 5904 5905 5905 5906 5908 5908 5908 5908 5908 5908
5882 5880 5879 5877 5876 5875 5874 5873 5872 5872 5871 5870 5869 5869 5868 5867 5867 5866 5865 5865 5864 5864 5864 5863 5863 5863 5863 5862 5862 5862 5862 5862 5862 5862 5862 5863 5863 5864 5864 5865 5866 5867 5868 5869 5869 5870 5871 5873 5874 5876 5878 5880 5881 5882 5883 5884 5885 5886 5887 5888 5889 5889 5889 5890 5892 5893 5893 5894 5895 5895 5896 5898 5899 5901 5902 5902 5903 5904 5904 5904 5905 5906 5908 5908 5908 5909 5909 5908
5879 5878 5876 5875 5874 5873 5872 5871 5870 5869 5868 5868 5867 5866 5866 5865 5864 5864 5863 5863 5862 5862 5861 5861 5861 5860 5860 5860 5860 5860 5860 5860 5860 5859 5859 5860 5860 5861 5861 5862 5863 5864 5865 5865 5866 5867 5869 5871 5872 5874 5876 5878 5880 5881 5882 5883 5884 5885 5886 5886 5887 5887 5888 5889 5890 5891 5892 5892 5893 5894 5896 5898 5899 5900 5901 5903 5903 5904 5904 5904 5905 5906 5908 5908 5909 5909 5909 5909
5877 5875 5874 5872 5871 5870 5869 5868 5868 5867 5866 5865 5865 5864 5864 5863 5862 5862 5861 5860 5860 5860 5859 5859 5859 5858 5858 5858 5857 5857 5857 5857 5857 5857 5857 5857 5857 5858 5858 5859 5860 5860 5861 5862 5863 5865 5866 5868 5870 5871 5874 5876 5878 5880 5880 5881 5883 5884 5885 5885 5886 5886 5887 5889 5889 5889 5890 5891 5891 5893 5895 5896 5897 5899 5901 5902 5903 5903 5903 5904 5905 5906 5907 5908 5909 5909 5909 5910
5874 5873 5871 5870 5869 5868 5867 5866 5865 5864 5864 5863 5863 5862 5861 5861 5860 5860 5859 5858 5858 5857 5857 5857 5857 5856 5856 5855 5855 5855 5854 5854 5854 5854 5854 5854 5854 5855 5855 5856 5856 5857 5858 5859 5860 5862 5864 5866 5867 5868 5871 5874 5876 5878 5879 5880 5882 5883 5884 5884 5884 5884 5885 5887 5888 5888 5888 5889 5890 5892 5893 5894 5896 5898 5900 5901 5902 5903 5903 5903 5904 5906 5908 5908 5909 5909 5910 5910
5872 5870 5869 5868 5866 5865 5864 5864 5863 5862 5862 5861 5861 5860 5859 5859 5858 5857 5857 5856 5856 5856 5855 5855 5855 5854 5854 5853 5852 5852 5851 5851 5851 5850 5850 5850 5851 5851 5851 5852 5853 5854 5855 5856 5857 5859 5861 5863 5864 5866 5869 5871 5873 5876 5878 5879 5880 5881 5881 5881 5882 5883 5883 5885 5886 5887 5887 5888 5889 5890 5892 5893 5895 5897 5899 5901 5901 5902 5903 5903 5904 5905 5907 5909 5909 5909 5910 5910
5870 5868 5867 5865 5864 5863 5862 5861 5861 5860 5860 5860 5859 5858 5857 5857 5856 5856 5855 5854 5854 5854 5854 5853 5853 5852 5851 5850 5849 5848 5848 5847 5847 5847 5846 5846 5847 5847 5848 5849 5850 5851 5852 5853 5854 5856 5858 5859 5861 5863 5867 5869 5871 5874 5877 5878 5878 5878 5878 5879 5880 5882 5883 5884 5885 5886 5886 5887 5887 5888 5890 5892 5894 5896 5898 5900 5901 5901 5902 5903 5904 5905 5907 5909 5909 5909 5909 5910
5868 5866 5865 5864 5863 5861 5861 5860 5859 5859 5858 5858 5857 5856 5855 5855 5854 5854 5853 5853 5853 5852 5852 5851 5850 5849 5848 5848 5847 5845 5844 5843 5843 5843 5843 5843 5843 5844 5845 5846 5847 5847 5848 5850 5851 5853 5855 5856 5859 5861 5865 5868 5870 5873 5874 5874 5873 5874 5876 5878 5880 5881 5882 5883 5884 5884 5885 5885 5886 5886 5888 5891 5893 5895 5897 5898 5900 5901 5901 5902 5903 5905 5907 5908 5909 5909 5909 5910
5866 5865 5864 5862 5861 5860 5859 5858 5857 5857 5856 5856 5855 5854 5854 5853 5852 5852 5851 5851 5851 5850 5849 5848 5847 5847 5846 5845 5844 5843 5842 5840 5840 5839 5839 5839 5840 5841 5842 5843 5844 5844 5845 5847 5849 5850 5852 5854 5857 5860 5864 5866 5868 5870 5869 5869 5870 5873 5875 5876 5878 5880 5881 5882 5882 5883 5884 5884 5884 5885 5887 5890 5892 5894 5895 5897 5899 5899 5900 5902 5903 5905 5906 5908 5909 5909 5909 5910
5865 5864 5862 5861 5859 5858 5857 5857 5856 5855 5855 5854 5853 5853 5852 5851 5850 5850 5850 5850 5849 5848 5847 5846 5845 5844 5843 5842 5841 5840 5839 5838 5837 5836 5836 5836 5837 5838 5839 5840 5841 5842 5843 5844 5846 5848 5850 5852 5855 5858 5860 5862 5863 5864 5863 5866 5868 5871 5873 5874 5876 5878 5880 5880 5881 5883 5883 5884 5884 5885 5887 5889 5891 5892 5894 5895 5897 5899 5900 5902 5903 5904 5906 5907 5908 5909 5909 5910
5864 5863 5861 5860 5858 5857 5856 5855 5855 5854 5853 5852 5852 5851 5850 5849 5848 5848 5848 5847 5847 5846 5845 5844 5843 5842 5841 5840 5839 5838 5837 5836 5834 5834 5834 5834 5834 5835 5835 5837 5838 5839 5841 5842 5844 5846 5848 5850 5853 5853 5854 5856 5858 5859 5860 5864 5866 5868 5870 5872 5874 5877 5878 5879 5880 5882 5882 5883 5883 5885 5886 5887 5889 5891 5892 5894 5896 5898 5900 5901 5902 5903 5905 5906 5908 5909 5909 5910
5863 5862 5860 5858 5857 5856 5855 5854 5853 5852 5852 5851 5850 5849 5848 5848 5847 5846 5845 5845 5844 5843 5842 5841 5840 5839 5838 5837 5836 5835 5835 5834 5833 5832 5832 5832 5832 5832 5833 5834 5835 5837 5839 5840 5842 5843 5845 5847 5847 5848 5850 5853 5855 5856 5859 5862 5864 5866 5868 5871 5873 5875 5877 5878 5879 5880 5880 5881 5882 5884 5885 5886 5888 5890 5891 5893 5895 5897 5898 5899 5900 5902 5903 5905 5907 5908 5909 5910
5862 5860 5859 5857 5856 5855 5853 5853 5852 5851 5850 5849 5848 5847 5846 5846 5845 5844 5844 5842 5841 5840 5839 5838 5838 5837 5836 5835 5834 5834 5833 5832 5831 5830 5830 5830 5830 5830 5831 5832 5833 5835 5836 5838 5839 5841 5842 5843 5843 5845 5848 5851 5852 5854 5857 5860 5862 5864 5867 5870 5872 5873 5875 5876 5878 5879 5879 5880 5881 5882 5884 5885 5887 5889 5890 5892 5894 5896 5897 5898 5899 5900 5902 5903 5905 5907 5908 5909
5861 5859 5857 5856 5855 5853 5852 5851 5850 5849 5849 5848 5847 5846 5845 5844 5843 5842 5841 5840 5839 5838 5837 5836 5835 5835 5834 5834 5833 5832 5831 5831 5830 5829 5828 5828 5828 5828 5829 5830 5831 5833 5834 5836 5837 5838 5839 5840 5841 5843 5846 5848 5851 5853 5855 5857 5860 5863 5866 5868 5870 5871 5873 5874 5876 5877 5878 5879 5880 5881 5882 5884 5886 5887 5889 5891 5893 5895 5896 5897 5898 5899 5900 5902 5905 5907 5907 5908
5859 5858 5856 5855 5853 5852 5851 5850 5849 5848 5847 5846 5845 5844 5843 5842 5841 5840 5839 5838 5837 5836 5836 5834 5834 5833 5832 5832 5831 5831 5830 5829 5828 5827 5827 5827 5826 5827 5828 5829 5830 5831 5832 5833 5835 5836 5836 5838 5840 5841 5844 5846 5848 5851 5853 5855 5858 5861 5865 5867 5868 5869 5870 5872 5874 5876 5877 5877 5878 5879 5880 5883 5885 5886 5888 5890 5891 5893 5895 5896 5897 5898 5900 5902 5905 5906 5907 5908
5858 5857 5855 5854 5852 5851 5850 5849 5848 5847 5846 5845 5844 5843 5842 5841 5840 5839 5838 5837 5835 5835 5834 5833 5832 5831 5830 5830 5830 5829 5828 5828 5827 5826 5826 5825 5825 5826 5826 5827 5828 5829 5830 5831 5833 5834 5835 5837 5838 5839 5841 5843 5845 5848 5851 5853 5856 5860 5862 5864 5866 5866 5868 5870 5872 5874 5875 5876 5877 5878 5879 5881 5882 5884 5886 5888 5890 5891 5892 5894 5896 5897 5899 5901 5903 5905 5907 5908
5857 5856 5854 5853 5851 5850 5849 5848 5847 5846 5845 5844 5843 5842 5841 5840 5839 5838 5837 5835 5834 5834 5832 5831 5830 5829 5829 5828 5828 5828 5827 5826 5826 5825 5824 5824 5824 5825 5825 5826 5826 5827 5828 5829 5831 5832 5833 5835 5836 5837 5839 5841 5844 5846 5849 5851 5855 5858 5860 5862 5863 5864 5865 5868 5870 5872 5874 5875 5876 5876 5877 5879 5881 5882 5884 5886 5887 5888 5890 5892 5894 5896 5898 5900 5901 5904 5906 5907
5856 5854 5853 5852 5850 5849 5848 5847 5846 5845 5844 5843 5842 5841 5840 5839 5838 5837 5835 5834 5834 5832 5831 5830 5829 5828 5828 5827 5827 5826 5826 5825 5824 5824 5823 5823 5823 5824 5824 5825 5825 5826 5827 5828 5829 5831 5832 5833 5834 5836 5837 5840 5843 5846 5847 5849 5852 5856 5858 5859 5860 5861 5863 5866 5869 5871 5872 5874 5875 5875 5876 5878 5879 5880 5882 5883 5885 5886 5888 5890 5893 5895 5897 5899 5900 5902 5904 5906
5854 5853 5852 5850 5849 5848 5847 5846 5845 5844 5843 5842 5841 5840 5839 5837 5836 5835 5834 5834 5833 5831 5830 5829 5828 5827 5827 5826 5825 5825 5824 5824 5823 5823 5823 5822 5822 5823 5823 5824 5825 5825 5827 5828 5829 5830 5831 5832 5833 5834 5836 5840 5843 5845 5845 5847 5851 5853 5855 5857 5858 5859 5861 5865 5867 5869 5871 5873 5873 5874 5875 5877 5878 5879 5880 5881 5883 5886 5887 5889 5891 5893 5895 5897 5898 5900 5902 5905
5853 5851 5850 5849 5848 5847 5845 5845 5844 5843 5842 5840 5839 5838 5837 5836 5835 5834 5833 5833 5832 5831 5830 5828 5827 5827 5826 5824 5824 5823 5823 5823 5822 5822 5822 5822 5822 5822 5822 5823 5824 5825 5826 5827 5829 5829 5830 5831 5832 5834 5837 5840 5841 5842 5843 5845 5849 5852 5853 5855 5856 5858 5860 5863 5865 5867 5870 5872 5872 5873 5874 5875 5877 5878 5878 5879 5882 5884 5886 5887 5889 5891 5893 5895 5897 5898 5901 5903
5851 5850 5849 5847 5846 5845 5844 5843 5842 5841 5840 5839 5838 5837 5836 5835 5834 5833 5832 5832 5831 5830 5829 5828 5827 5826 5825 5823 5823 5822 5822 5822 5822 5821 5821 5821 5821 5821 5822 5822 5823 5824 5825 5827 5827 5828 5828 5830 5832 5834 5837 5838 5839 5840 5841 5844 5847 5850 5852 5854 5855 5857 5859 5862 5865 5867 5870 5871 5871 5872 5873 5874 5876 5876 5877 5878 5880 5881 5883 5885 5888 5890 5892 5894 5895 5897 5899 5902
5850 5848 5847 5846 5845 5844 5843 5842 5841 5840 5839 5838 5837 5836 5835 5834 5833 5832 5831 5830 5830 5829 5828 5828 5827 5826 5824 5823 5822 5822 5822 5821 5821 5821 5821 5820 5820 5821 5821 5822 5823 5824 5825 5826 5826 5826 5828 5829 5832 5834 5835 5836 5836 5838 5840 5842 5846 5848 5851 5853 5854 5856 5858 5862 5865 5867 5869 5869 5870 5871 5872 5874 5874 5874 5876 5878 5878 5879 5881 5883 5886 5888 5890 5892 5894 5896 5898 5900
5848 5847 5846 5844 5843 5842 5841 5840 5839 5838 5837 5836 5835 5834 5833 5832 5831 5831 5830 5829 5829 5828 5827 5827 5826 5825 5824 5822 5822 5821 5821 5821 5820 5820 5820 5820 5820 5820 5820 5821 5822 5823 5824 5824 5825 5826 5827 5829 5831 5832 5833 5834 5835 5837 5840 5843 5846 5848 5851 5852 5853 5855 5858 5862 5864 5865 5867 5868 5869 5871 5871 5873 5873 5873 5876 5877 5877 5879 5880 5882 5884 5886 5888 5890 5892 5894 5896 5898
5847 5845 5844 5843 5842 5840 5839 5838 5837 5836 5835 5835 5834 5833 5832 5831 5830 5829 5828 5828 5827 5827 5826 5826 5825 5824 5823 5822 5821 5821 5821 5821 5820 5819 5819 5819 5819 5819 5820 5820 5821 5822 5823 5823 5824 5825 5827 5828 5829 5830 5831 5832 5834 5836 5839 5842 5844 5847 5850 5851 5852 5855 5858 5860 5862 5863 5865 5867 5869 5870 5871 5871 5872 5873 5875 5875 5876 5877 5879 5880 5882 5884 5885 5887 5889 5890 5893 5896
5845 5844 5843 5841 5840 5839 5838 5837 5836 5835 5834 5833 5832 5831 5830 5829 5828 5828 5827 5826 5826 5826 5825 5825 5824 5823 5823 5822 5821 5821 5820 5820 5819 5819 5819 5818 5818 5819 5819 5819 5820 5821 5822 5823 5824 5825 5826 5826 5827 5828 5829 5831 5832 5834 5837 5840 5842 5844 5847 5849 5852 5855 5857 5858 5860 5862 5864 5867 5869 5869 5870 5870 5870 5872 5873 5874 5875 5876 5877 5878 5880 5882 5884 5885 5886 5888 5891 5894
5844 5842 5841 5840 5838 5837 5836 5835 5834 5833 5832 5831 5831 5830 5829 5828 5827 5826 5826 5825 5824 5824 5824 5823 5823 5822 5822 5822 5821 5820 5820 5820 5819 5818 5818 5818 5818 5818 5818 5819 5820 5820 5821 5822 5823 5824 5825 5826 5826 5827 5828 5830 5831 5833 5836 5838 5840 5843 5845 5848 5851 5854 5855 5857 5859 5861 5864 5866 5868 5868 5869 5869 5869 5870 5871 5873 5873 5874 5875 5876 5878 5880 5882 5884 5886 5887 5889 5892
5842 5841 5839 5838 5837 5836 5835 5834 5832 5831 5830 5830 5829 5828 5827 5826 5826 5825 5825 5824 5824 5823 5823 5822 5822 5821 5821 5821 5821 5820 5819 5819 5818 5818 5818 5817 5817 5817 5818 5818 5819 5820 5820 5821 5822 5823 5824 5825 5825 5826 5828 5829 5831 5832 5835 5837 5839 5842 5845 5848 5850 5852 5853 5856 5858 5860 5863 5865 5866 5867 5867 5868 5868 5869 5870 5871 5872 5873 5873 5874 5876 5878 5880 5882 5884 5886 5888 5891
5840 5839 5837 5836 5835 5834 5833 5832 5831 5830 5829 5828 5828 5827 5826 5825 5825 5824 5823 5823 5823 5822 5821 5821 5821 5820 5820 5820 5820 5819 5819 5818 5818 5817 5817 5817 5816 5816 5817 5817 5818 5818 5819 5820 5821 5822 5824 5824 5824 5825 5827 5829 5829 5832 5834 5836 5838 5841 5843 5845 5847 5849 5852 5854 5856 5858 5861 5863 5864 5865 5866 5867 5867 5868 5869 5870 5871 5872 5872 5873 5873 5875 5877 5880 5883 5885 5887 5889
5838 5836 5835 5834 5833 5832 5831 5830 5829 5828 5827 5826 5826 5825 5824 5823 5823 5822 5822 5822 5821 5821 5820 5820 5819 5819 5819 5819 5819 5818 5818 5817 5817 5817 5817 5816 5816 5815 5815 5816 5817 5817 5818 5819 5820 5821 5822 5823 5824 5824 5827 5828 5828 5830 5833 5835 5837 5840 5841 5843 5845 5847 5849 5852 5854 5856 5858 5861 5863 5864 5865 5865 5866 5867 5868 5869 5869 5870 5871 5871 5871 5871 5874 5878 5881 5883 5885 5888
5835 5834 5833 5832 5831 5830 5829 5828 5827 5826 5825 5825 5824 5823 5823 5822 5821 5821 5820 5820 5820 5820 5819 5819 5818 5818 5818 5818 5818 5817 5817 5816 5816 5816 5816 5815 5815 5814 5814 5814 5815 5815 5817 5818 5819 5820 5821 5822 5823 5824 5825 5827 5827 5829 5831 5833 5836 5839 5840 5841 5844 5846 5848 5850 5853 5853 5855 5859 5861 5862 5863 5864 5865 5866 5866 5867 5868 5869 5870 5870 5870 5869 5870 5875 5878 5880 5883 5886
5832 5831 5830 5829 5828 5827 5826 5826 5825 5824 5823 5823 5822 5822 5821 5820 5820 5820 5819 5819 5819 5818 5818 5818 5817 5817 5817 5817 5817 5816 5816 5815 5815 5815 5814 5814 5814 5813 5813 5813 5813 5814 5815 5816 5818 5819 5820 5822 5823 5823 5824 5826 5827 5829 5831 5832 5835 5837 5839 5840 5843 5845 5847 5850 5851 5851 5853 5857 5858 5859 5860 5862 5864 5864 5865 5866 5866 5867 5868 5868 5869 5869 5869 5872 5876 5878 5881 5884
5829 5828 5827 5826 5826 5825 5824 5823 5823 5822 5821 5821 5820 5819 5819 5818 5818 5818 5818 5818 5817 5817 5817 5817 5816 5816 5816 5816 5815 5815 5815 5814 5814 5813 5813 5813 5812 5812 5812 5812 5812 5812 5814 5815 5817 5818 5819 5821 5823 5823 5824 5825 5827 5829 5830 5832 5833 5835 5837 5839 5841 5843 5846 5848 5849 5850 5852 5854 5855 5857 5859 5860 5862 5863 5863 5864 5865 5866 5866 5867 5868 5868 5869 5871 5874 5876 5879 5882
5826 5825 5824 5824 5823 5822 5822 5821 5820 5820 5819 5819 5818 5817 5817 5816 5816 5816 5816 5816 5816 5815 5815 5815 5815 5815 5815 5814 5814 5814 5813 5813 5813 5812 5812 5812 5811 5811 5811 5810 5810 5811 5812 5814 5815 5817 5818 5820 5822 5822 5823 5825 5827 5828 5829 5830 5832 5833 5835 5837 5839 5841 5844 5846 5848 5849 5851 5852 5853 5855 5857 5858 5860 5861 5862 5863 5864 5865 5865 5866 5867 5868 5869 5870 5872 5874 5877 5880
5823 5822 5821 5821 5820 5819 5819 5819 5818 5818 5817 5817 5816 5815 5815 5814 5814 5814 5814 5814 5814 5814 5814 5814 5814 5814 5813 5813 5812 5812 5812 5812 5812 5812 5812 5811 5811 5810 5810 5809 5809 5809 5810 5812 5814 5815 5817 5819 5820 5821 5822 5824 5825 5826 5827 5829 5830 5831 5833 5835 5838 5840 5842 5844 5846 5847 5849 5851 5852 5853 5855 5857 5858 5859 5861 5862 5863 5864 5864 5865 5866 5866 5867 5869 5870 5872 5875 5877
5820 5819 5819 5818 5817 5817 5816 5816 5816 5815 5815 5815 5814 5813 5813 5812 5812 5812 5812 5812 5812 5812 5812 5812 5812 5812 5811 5811 5811 5810 5810 5811 5811 5811 5811 5811 5810 5809 5809 5808 5807 5807 5809 5810 5812 5814 5815 5817 5818 5819 5821 5823 5824 5824 5826 5827 5828 5830 5833 5835 5837 5838 5840 5842 5844 5846 5848 5849 5850 5851 5853 5855 5857 5858 5859 5860 5861 5862 5862 5863 5864 5865 5865 5866 5868 5870 5872 5874
5818 5817 5816 5815 5815 5814 5813 5813 5813 5813 5813 5812 5812 5812 5811 5811 5810 5810 5810 5810 5810 5810 5811 5811 5811 5810 5809 5809 5809 5809 5808 5809 5810 5810 5809 5810 5809 5809 5808 5807 5806 5806 5808 5809 5811 5812 5813 5815 5816 5818 5819 5821 5823 5823 5825 5827 5828 5830 5832 5834 5835 5836 5837 5839 5842 5844 5846 5847 5849 5851 5852 5854 5856 5857 5858 5859 5859 5860 5860 5861 5862 5862 5863 5864 5866 5867 5869 5872
5815 5814 5813 5812 5812 5811 5811 5811 5811 5811 5810 5810 5810 5810 5810 5809 5808 5808 5808 5809 5809 5809 5809 5810 5809 5809 5808 5807 5807 5807 5807 5807 5808 5808 5808 5808 5808 5808 5808 5807 5806 5806 5807 5808 5809 5810 5811 5813 5815 5816 5818 5820 5821 5822 5823 5825 5827 5829 5831 5833 5834 5834 5835 5838 5840 5842 5844 5846 5848 5850 5852 5853 5855 5855 5857 5857 5858 5858 5859 5859 5860 5860 5860 5862 5863 5865 5866 5868
5812 5811 5810 5809 5808 5808 5808 5808 5808 5808 5808 5808 5808 5808 5808 5807 5806 5806 5806 5807 5807 5807 5808 5808 5808 5807 5807 5806 5806 5806 5806 5806 5806 5806 5806 5806 5807 5807 5807 5807 5806 5806 5806 5807 5807 5808 5809 5810 5812 5814 5816 5817 5819 5820 5821 5823 5825 5827 5829 5831 5833 5834 5835 5836 5838 5840 5843 5845 5847 5849 5851 5852 5854 5854 5855 5856 5857 5857 5858 5858 5858 5858 5858 5859 5861 5862 5863 5866
5809 5808 5808 5807 5806 5805 5805 5805 5805 5805 5805 5805 5805 5806 5805 5805 5805 5804 5804 5805 5805 5806 5806 5807 5807 5806 5806 5805 5805 5805 5805 5805 5804 5804 5805 5805 5805 5805 5806 5807 5807 5806 5806 5806 5806 5807 5807 5808 5810 5812 5814 5815 5816 5817 5819 5822 5824 5825 5827 5829 5832 5834 5835 5836 5837 5840 5842 5844 5846 5848 5850 5851 5852 5854 5854 5855 5856 5856 5857 5857 5856 5856 5856 5857 5858 5858 5860 5863
5806 5805 5805 5804 5803 5802 5802 5802 5802 5802 5802 5802 5802 5803 5803 5803 5803 5803 5803 5803 5804 5804 5805 5805 5805 5805 5805 5804 5804 5803 5803 5804 5803 5803 5803 5803 5803 5803 5804 5805 5806 5806 5806 5806 5806 5806 5806 5807 5808 5810 5811 5812 5813 5815 5818 5822 5823 5824 5825 5827 5830 5832 5834 5835 5837 5839 5841 5843 5845 5847 5849 5850 5851 5852 5853 5854 5855 5855 5856 5856 5855 5855 5854 5855 5855 5856 5858 5860
5803 5802 5802 5801 5801 5800 5799 5799 5799 5799 5799 5799 5800 5800 5800 5800 5800 5801 5801 5801 5802 5802 5803 5803 5804 5804 5803 5803 5802 5802 5802 5802 5802 5802 5802 5803 5803 5802 5802 5803 5805 5806 5806 5806 5806 5805 5805 5805 5806 5808 5809 5809 5810 5814 5817 5820 5822 5823 5824 5825 5827 5830 5832 5833 5835 5838 5840 5842 5844 5846 5848 5849 5850 5851 5852 5853 5853 5854 5855 5855 5855 5854 5853 5853 5853 5854 5856 5859
5799 5799 5798 5798 5797 5797 5796 5796 5796 5796 5796 5796 5796 5797 5797 5797 5797 5798 5799 5799 5800 5800 5801 5801 5802 5802 5802 5801 5801 5801 5801 5801 5801 5801 5801 5801 5802 5802 5802 5802 5803 5804 5805 5806 5806 5805 5804 5804 5805 5806 5807 5807 5809 5812 5816 5818 5820 5820 5822 5824 5825 5827 5829 5830 5833 5836 5839 5841 5842 5844 5846 5847 5849 5850 5851 5851 5852 5853 5854 5854 5853 5854 5853 5853 5853 5853 5854 5857